Theta_e
286 287 286 285 286 287 286 287 283 285 286 290 294 294 295 297 299 300 301 302 301 301 301 301 301 300 299 300 302 306 309 313 316 318 320 320 320 321 323 323 323 324 323 322
279 285 286 284 286 286 286 287 287 287 286 293 295 296 295 296 298 298 300 302 304 304 305 303 301 300 300 299 299 302 307 310 314 314 314 316 316 314 317 319 320 320 319 320
276 282 283 278 282 284 285 286 286 283 288 292 291 292 294 296 297 297 300 301 303 304 305 304 304 302 300 300 298 298 303 306 305 307 305 306 306 305 306 309 311 311 313 313
276 276 267 281 287 286 285 287 288 289 290 292 293 295 296 290 289 291 293 293 295 299 302 304 305 302 301 299 298 296 298 300 298 299 301 299 300 303 301 302 306 305 304 308
270 268 276 280 282 282 280 281 287 287 284 285 286 290 291 288 288 289 290 291 293 294 295 297 304 305 301 297 296 294 294 294 295 297 297 296 297 300 301 298 298 300 299 300
268 264 263 278 284 287 286 278 283 283 282 281 283 282 286 285 287 287 288 289 290 290 292 293 295 298 300 295 293 294 292 293 294 295 297 297 300 299 294 299 299 295 292 297
269 266 272 283 286 289 273 276 279 279 279 278 277 280 281 283 284 285 286 287 287 288 288 289 290 291 293 296 293 293 291 290 290 294 296 298 298 296 292 295 291 291 291 289
269 265 268 283 286 281 274 276 275 275 276 275 276 277 279 279 280 281 282 282 284 284 284 285 287 287 289 291 294 291 289 289 289 290 291 294 293 290 291 291 290 289 288 287
278 276 280 279 275 274 273 272 273 273 273 273 272 273 274 275 276 278 278 279 280 281 280 282 284 284 284 286 289 290 289 288 288 287 288 289 290 289 290 290 292 290 290 289
280 279 274 276 274 272 271 271 272 272 271 271 270 271 272 273 274 274 275 276 278 278 277 278 281 281 282 284 284 286 288 288 286 287 287 288 289 289 291 290 291 290 290 290
275 275 276 274 272 270 270 270 270 270 269 269 269 270 271 271 272 272 273 274 275 274 275 276 278 280 281 280 283 283 285 284 286 287 287 287 288 289 290 291 293 291 291 290
271 268 267 269 269 269 267 267 268 267 267 268 269 269 269 268 269 270 271 271 270 269 271 273 274 275 277 276 277 283 283 285 286 287 286 287 287 286 290 291 291 292 292 291
267 267 266 267 269 268 265 266 266 266 266 266 267 267 267 267 267 269 268 267 266 266 270 269 270 271 273 272 275 282 284 285 286 285 285 286 286 287 285 287 291 291 291 291
266 264 266 266 263 265 265 265 265 264 265 265 265 265 265 266 266 266 266 266 266 266 265 265 267 268 269 270 272 280 283 284 285 285 286 286 287 287 287 286 286 286 289 289
262 262 262 263 263 262 263 263 261 261 262 262 263 263 264 264 264 265 265 265 266 265 264 264 264 266 268 270 272 274 281 282 283 284 284 285 285 285 285 285 285 284 284 286
257 256 255 256 258 258 259 259 259 260 261 261 262 262 263 264 265 264 264 263 262 263 263 263 264 266 267 268 271 273 276 280 281 282 283 283 282 282 283 284 283 282 283 283
251 252 251 251 252 255 254 256 259 259 260 260 260 261 263 263 263 264 263 263 263 263 263 263 263 267 267 268 270 271 272 273 274 278 279 280 281 281 280 280 280 282 279 278
252 251 252 253 254 255 255 257 258 259 259 260 261 261 261 262 261 261 262 263 262 262 262 263 264 266 266 267 268 270 271 271 272 272 273 275 276 277 278 278 277 274 276 280
252 252 253 254 255 255 256 257 258 259 260 260 259 259 260 261 261 261 262 262 259 259 260 262 266 265 264 266 267 268 268 269 270 270 271 272 272 273 274 274 274 274 273 272
253 255 255 256 257 257 257 258 258 258 259 259 259 259 258 259 261 260 261 260 259 259 261 262 262 263 263 264 266 266 266 266 267 268 269 269 269 269 270 270 270 270 270 270
256 257 255 255 255 255 256 257 256 255 257 258 257 257 257 258 259 260 259 257 259 260 260 261 261 262 262 263 264 264 264 264 264 265 265 266 267 268 268 268 268 268 268 268
254 253 253 253 252 252 252 254 254 254 255 256 256 256 256 256 257 258 259 257 258 259 260 260 260 262 261 262 262 262 262 263 263 263 263 264 264 264 265 266 266 267 267 267
251 251 250 248 248 248 249 249 250 253 254 254 255 255 255 256 257 256 255 257 258 258 258 259 260 262 261 260 260 260 260 260 261 261 262 262 263 263 263 264 264 265 265 266
251 249 247 246 245 246 246 247 247 251 251 253 254 255 254 255 255 258 257 257 257 257 257 258 259 262 259 258 258 258 258 259 259 259 260 260 261 262 262 262 263 263 264 264
247 245 244 244 245 247 245 246 248 248 249 252 253 253 252 254 252 254 255 255 257 256 256 257 259 259 256 256 256 256 256 257 257 257 257 257 258 258 259 260 261 261 262 263
245 246 245 245 246 246 246 246 246 248 246 249 249 250 252 253 253 254 254 254 254 254 254 255 254 255 254 254 254 254 255 255 255 255 255 256 256 256 257 257 258 258 259 260
244 247 246 247 247 247 246 245 244 247 245 243 247 249 249 251 251 252 253 252 252 252 253 252 253 253 253 253 253 253 253 253 254 254 253 253 254 254 254 255 255 256 257 257
Wind_Speed
14 11 10 14 7 10 11 15 14 22 21 31 17 10 15 20 24 23 22 14 8 8 8 8 9 8 8 8 8 8 9 10 13 13 13 12 12 13 13 14 14 15 15 14
5 4 9 14 14 14 12 13 9 16 21 31 21 16 16 17 21 21 19 19 19 17 14 11 8 8 8 9 9 7 10 14 13 10 10 12 12 11 12 13 14 13 13 14
3 3 4 9 18 16 16 18 17 19 26 28 24 8 12 16 12 12 14 14 16 18 16 13 13 9 10 11 8 8 11 11 8 8 8 9 9 9 10 11 9 9 10 11
4 4 4 9 3 7 12 15 15 20 23 26 19 18 14 16 14 17 20 22 22 21 21 18 14 9 9 8 8 9 10 9 7 9 10 8 7 10 7 7 11 9 8 10
4 5 9 12 8 8 8 18 6 7 13 14 20 16 3 17 17 15 17 17 17 19 21 22 24 16 9 9 8 9 8 9 10 11 10 8 9 10 8 7 7 8 6 10
2 4 9 4 5 8 4 10 10 13 13 16 18 9 7 27 23 23 19 18 21 24 22 20 21 25 16 9 9 11 8 13 11 10 11 12 13 11 6 7 9 6 7 11
4 5 7 3 6 7 4 5 12 13 13 15 10 8 18 21 24 18 20 23 23 21 20 19 20 21 21 16 13 9 9 9 9 11 13 14 12 10 8 9 6 8 8 5
3 3 8 9 4 2 5 8 12 13 14 15 14 17 17 16 19 22 23 23 20 21 21 20 18 17 19 19 14 9 8 8 9 9 8 8 10 8 8 10 10 8 7 5
9 6 7 11 14 10 10 8 11 13 15 16 18 17 19 18 17 17 21 21 20 18 22 18 17 16 18 17 19 18 11 10 8 5 6 8 10 9 7 9 10 9 9 9
4 5 6 11 12 12 12 11 12 12 15 18 20 19 21 18 17 17 17 20 21 22 22 23 19 19 17 17 16 15 15 11 4 5 7 8 6 8 9 9 9 9 10 9
5 5 6 8 12 15 15 12 15 16 16 17 18 20 19 19 18 18 18 17 19 21 20 21 19 18 15 16 17 15 12 7 5 5 7 8 9 9 10 10 11 12 11 11
2 5 2 7 14 17 16 17 17 20 21 18 18 20 20 18 16 16 16 16 17 18 18 18 17 17 15 15 15 14 12 8 6 7 4 6 7 2 5 7 8 9 11 11
2 7 6 11 11 14 15 16 17 18 18 20 17 15 17 17 16 16 14 13 15 17 14 15 16 15 16 17 16 15 11 7 5 4 3 5 6 8 8 2 12 13 14 14
6 7 3 8 8 13 13 14 14 14 13 13 15 14 13 14 14 13 12 13 13 13 12 13 14 14 16 17 17 15 10 8 4 2 3 5 6 7 5 6 7 5 10 12
6 4 5 9 9 9 9 10 11 12 14 15 13 14 14 15 14 14 13 14 13 10 12 14 15 17 17 17 16 16 9 6 4 3 2 2 2 3 4 5 4 4 5 5
3 3 2 3 6 7 7 8 8 11 13 13 14 15 15 13 11 11 12 13 14 13 15 15 16 18 17 16 17 12 12 15 9 5 4 3 2 1 1 3 4 5 5 6
4 4 4 3 4 8 6 6 5 8 11 11 14 15 14 13 11 11 11 13 12 11 13 15 17 18 17 18 17 11 10 12 18 11 8 5 2 1 2 3 3 4 2 0
4 2 3 4 6 9 9 8 6 7 9 10 11 13 13 13 13 13 13 11 11 12 15 17 18 17 17 19 17 12 12 12 11 10 9 10 7 4 3 2 3 4 2 3
2 3 3 4 5 7 6 6 7 8 10 10 11 11 11 10 12 12 13 9 13 14 18 17 23 18 17 20 18 12 13 13 12 10 10 11 9 9 7 6 5 5 5 4
1 0 2 4 6 5 5 4 6 6 7 9 9 9 10 11 11 12 10 10 10 9 15 16 17 16 16 17 17 12 12 12 11 11 10 10 10 10 9 10 8 7 6 5
1 2 3 5 6 5 3 4 6 7 8 7 8 9 10 10 11 11 10 9 14 14 15 16 13 13 12 15 13 11 10 10 10 10 10 10 10 9 9 8 8 7 6 5
1 1 3 3 4 6 5 3 4 6 7 7 7 7 9 10 11 9 8 6 10 17 12 9 11 17 14 16 10 11 11 11 10 9 10 9 9 9 9 9 8 7 6 5
2 2 3 3 4 6 7 4 4 6 6 7 8 8 8 7 7 7 10 11 10 13 10 9 16 19 18 10 10 10 11 11 10 10 9 9 9 9 8 8 8 7 7 6
1 2 3 4 4 4 5 5 5 6 4 6 6 6 5 8 8 3 7 11 14 14 10 11 14 17 15 9 9 9 9 9 9 8 8 11 8 8 8 8 8 7 7 7
3 3 2 3 3 2 4 5 6 5 5 6 5 5 4 3 2 8 8 9 13 11 9 12 16 16 9 9 10 10 9 8 8 8 8 8 8 8 8 8 9 9 7 6
2 2 2 4 4 3 3 3 3 4 3 5 4 4 5 5 6 7 7 9 8 10 8 8 8 8 8 8 8 9 8 9 9 8 10 9 9 9 9 9 8 8 8 8
3 3 2 2 2 2 2 3 2 4 3 3 6 6 5 6 6 7 8 8 8 7 7 7 7 8 8 9 9 9 8 8 10 9 8 8 7 7 8 8 8 8 8 8
Wind_Direction
247 259 278 276 246 220 230 248 256 267 267 273 276 312 314 311 307 305 301 295 278 266 268 255 245 239 244 242 227 214 221 227 228 225 222 219 222 221 214 212 212 209 207 204
317 295 277 279 272 261 251 232 245 261 269 267 279 268 281 274 270 273 285 295 296 287 285 281 275 257 251 249 241 206 221 227 229 224 217 215 214 210 211 210 207 204 200 198
268 231 227 270 248 249 255 251 242 250 254 276 284 274 254 247 279 300 296 293 295 299 297 291 286 253 240 241 229 215 224 231 227 217 223 215 209 198 199 197 189 194 189 184
205 56 248 238 305 236 248 254 240 244 255 266 284 279 273 47 20 352 350 348 343 337 327 306 285 270 248 238 222 222 222 227 224 221 222 214 211 209 203 183 190 187 184 188
154 199 278 294 269 253 239 268 348 308 9 358 343 321 158 24 3 343 336 334 328 330 322 321 315 293 251 239 229 232 228 223 223 217 216 198 203 211 201 177 183 192 186 187
109 176 230 65 5 329 340 274 12 16 3 359 348 355 323 342 341 333 331 335 332 324 320 324 329 328 296 243 230 233 218 232 226 208 211 211 214 208 195 203 213 185 186 191
211 252 293 352 313 288 151 291 349 3 349 344 339 311 315 319 320 327 320 322 323 317 316 319 321 319 313 294 260 240 229 232 222 211 214 215 209 198 184 193 169 187 189 175
174 238 287 356 10 256 10 11 349 348 337 327 321 311 309 318 316 316 319 322 321 314 315 319 318 319 316 315 308 291 263 244 232 218 206 206 201 188 183 174 173 170 157 147
173 204 69 43 100 71 34 355 345 334 335 330 322 321 318 317 316 317 316 314 317 313 313 315 319 321 316 317 317 312 289 259 248 202 202 188 186 184 171 179 183 177 178 177
40 24 66 117 93 44 10 355 342 339 330 328 320 322 317 317 321 318 316 314 313 317 314 314 321 322 318 322 316 310 291 273 234 221 218 214 192 177 181 185 189 183 183 182
279 59 37 125 54 7 346 354 340 330 327 322 321 315 315 318 319 315 312 312 315 312 312 314 320 319 326 326 323 320 312 297 263 245 220 224 223 213 205 209 198 189 195 182
205 75 332 293 346 344 358 343 337 330 324 327 321 319 319 315 312 312 315 318 316 312 308 318 318 318 321 323 320 317 318 308 287 268 237 232 224 218 255 209 200 197 184 184
53 352 302 291 313 6 347 338 331 325 320 317 324 321 312 313 315 312 314 319 317 309 311 322 317 318 329 326 322 315 315 309 296 262 240 243 232 226 214 179 173 174 174 180
34 355 346 39 327 333 335 334 330 317 312 319 316 316 315 315 318 319 328 322 318 319 323 325 324 329 332 328 330 310 315 320 318 287 260 254 243 230 207 189 184 178 182 170
66 42 290 302 311 326 333 333 332 329 327 324 323 319 322 328 330 334 335 328 321 332 342 342 341 341 339 338 336 321 323 325 344 330 344 274 256 222 184 181 184 152 123 161
347 272 273 331 312 312 319 330 336 330 324 322 326 326 323 326 323 339 339 337 344 347 346 347 346 343 340 345 344 344 342 348 354 348 351 332 319 272 138 158 157 168 176 180
62 6 355 349 317 307 299 286 306 322 312 325 332 326 325 334 334 337 346 344 341 340 350 350 341 345 347 353 352 348 356 1 3 360 355 333 313 84 73 108 148 167 131 150
158 207 220 234 291 298 311 306 323 324 315 330 334 333 335 340 341 338 333 341 345 354 0 350 342 350 355 358 357 356 11 8 7 3 358 342 345 3 23 69 81 109 129 172
176 231 274 280 269 269 281 302 329 327 324 337 343 338 331 330 336 322 331 351 2 357 350 344 344 355 358 355 0 356 16 9 7 6 5 359 358 7 12 21 38 45 28 51
258 229 311 290 283 272 296 313 320 325 331 333 330 339 337 331 331 333 336 349 6 348 333 342 350 356 353 352 359 8 13 11 5 5 6 9 13 12 14 23 30 36 34 35
90 20 322 293 291 291 307 323 325 324 325 330 334 335 325 321 327 336 347 351 346 348 346 346 355 358 351 351 359 6 10 13 8 5 9 6 3 10 19 25 24 25 32 36
40 272 270 288 299 305 315 320 337 317 323 325 324 329 330 332 334 332 335 359 332 342 342 344 349 360 350 354 357 1 5 10 13 5 6 4 4 5 9 11 13 14 20 32
268 263 294 316 302 284 305 331 328 313 314 319 319 326 330 318 318 328 339 336 333 333 340 342 344 355 353 356 358 356 2 3 3 3 1 358 358 359 3 4 2 360 2 5
276 298 283 291 319 347 344 307 316 297 284 302 301 305 321 330 328 332 324 321 331 341 340 340 347 355 355 353 354 354 352 357 354 351 357 356 351 352 354 354 357 353 351 350
241 263 259 336 330 287 297 294 310 308 313 314 315 314 317 306 281 310 319 323 331 336 336 341 348 351 351 350 349 350 347 344 347 342 347 346 345 345 343 346 345 341 341 340
200 224 225 215 221 248 270 316 296 297 321 319 304 302 311 318 310 315 320 326 329 332 335 338 339 342 341 340 338 340 341 338 340 340 340 338 341 338 337 338 335 332 330 331
243 213 261 288 240 237 262 261 284 292 298 288 294 295 300 310 312 321 321 326 327 324 324 327 328 333 333 334 333 333 331 330 333 331 331 328 328 327 327 326 326 324 322 322